Starlink 4408

operational
NORAD ID: 53206 Int'l Des: 2022-084 Owner: SPXS Country: US Constellation: starlink
LEOCIRCULARRETROGRADESSO

About Starlink 4408

Description loading...

Live Position

Loading 3D Globe...

Upcoming Passes

Altitude History

Altitude vs Time

uPlot chart will show altitude changes over time

Two-Line Element Set

1 53206U 22084T 25299.14252209 .00000106 00000-0 11559-4 0 9996
2 53206 97.6013 358.5902 0001515 88.7015 271.4386 15.05649783179137
Epoch: Oct 26, 2025 • Age: 7 hours

Current Status

Altitude 559.4 km
Velocity 7.58 km/s
Sub-Earth Point -24.89°S, 20.32°W
Launch Date Jul 22, 2022
Age 3.2 years
Type internet

Technical Details

Classification Payload
Mass 297.00 kg
Dry Mass 275.00 kg
Total Mass 297.00 kg
Length 0.20 m
Diameter 2.80 m
Span 9.00 m
Shape Box + pan
Manufacturer SPXS
Bus Type Starlink
Phase Status In Orbit
Owner/State SPXS/US

Large Constellations

Loading constellations...